Estación Meteorológica Peña el Pijo (Robertgarden) [ 09/30/20 01:50:48 CEST ]

Fecha Hora Presion(HPa) Temp (°C) Humedad % Rocio (°C) Viento ( m/s) Direccion Lluvia 1Hora(mm) Lluvia 24H(mm) LLuvia Total(mm)
2020-Apr-08 01:09:02 1014.600 - - - - SSW     39.88
2020-Apr-08 02:01:09 1014.300 - - - 41.6 W     39.88
2020-Apr-08 03:09:01 1013.800 - - - - W     39.88
2020-Apr-08 04:09:17 1013.500 - - - - W     39.88
2020-Apr-08 05:09:07 1013.100 - - - - W     39.88
2020-Apr-08 06:09:17 1012.800 - - - - W     39.88
2020-Apr-08 07:09:34 1012.600 - - - - W     39.88
2020-Apr-08 08:10:33 1012.900 - - - - W     39.88
2020-Apr-08 09:10:32 1013.300 - - - - W     39.88
2020-Apr-08 10:09:24 1012.900 - - - - W     39.88
2020-Apr-08 11:08:55 1012.900 - - - - W     39.88
2020-Apr-08 12:08:42 1012.600 - - - - W     39.88
2020-Apr-08 13:09:02 1012.000 - - - - W     39.88
2020-Apr-08 14:08:51 1011.500 - - - - W     39.88
2020-Apr-08 15:09:02 1011.300 - - - - W     39.88
2020-Apr-08 16:09:09 1010.500 - - - - W     39.88
2020-Apr-08 17:09:27 1010.200 - - - - W     39.88
2020-Apr-08 18:09:29 1009.800 - - - - W     39.88
2020-Apr-08 19:09:30 1010.400 - - - - W     39.88
2020-Apr-08 20:09:04 1010.500 - - - - W     39.88
2020-Apr-08 21:09:17 1010.900 - - - - W     39.88
2020-Apr-08 22:08:41 1011.600 - - - - W     39.88
2020-Apr-08 23:08:43 1011.800 - - - - W     39.88

Temperatura Máxima:    Temperatura Mínima:
Presión Máxima:1014.600 Hpa    Presión Mínima:1009.800 Hpa


Volver